Location: Costa+Rica+prom
(10.0000°N, 84.0000°W)
Time: 03:18:08
(UTC-06:00)

ISS - Visible Passes

Search period start: 18 October 2019 00:00
Search period end: 28 October 2019 00:00
Orbit: 411 x 421 km, 51.6° (Epoch: 18 October)

Date Brightness Start Highest point End Pass type
(mag) Time Alt. Az. Time Alt. Az. Time Alt. Az.
18 Oct -0.7 04:54:41 10° S 04:57:08 19° SE 04:59:34 10° ENE visible
20 Oct -3.8 04:53:13 10° SW 04:56:34 82° NW 04:59:55 10° NE visible
21 Oct -2.3 04:05:29 14° S 04:08:02 37° SE 04:11:11 10° NE visible
22 Oct -0.5 03:20:56 13° E 03:20:56 13° E 03:21:44 10° E visible
22 Oct -2.1 04:53:57 11° W 04:56:04 17° NW 04:58:18 10° N visible
23 Oct -2.1 04:09:03 22° N 04:09:03 22° N 04:10:34 10° NNE visible
